| time (UTC) | temp F | wind direction | speed knots | gust knots | rain 1hr in | rain 24hr in | rain mn in | humidity % | barometer mb |
| 20260506025510 | 48 | 317 | 0.0 | 0.9 | 0.00 | 0.00 | 0.00 | 54 | 1008.7 |
| 20260506024605 | 48 | 317 | 0.0 | 0.9 | 0.00 | 0.00 | 0.00 | 55 | 1008.6 |
| 20260506024109 | 48 | 317 | 0.0 | 0.9 | 0.00 | 0.00 | 0.00 | 54 | 1008.6 |
| 20260506023846 | 48 | 317 | 0.0 | 1.7 | 0.00 | 0.00 | 0.00 | 53 | 1008.6 |
| 20260506022518 | 49 | 317 | 0.9 | 1.7 | 0.00 | 0.00 | 0.00 | 54 | 1008.5 |
| 20260506021829 | 49 | 317 | 0.9 | 1.7 | 0.00 | 0.00 | 0.00 | 54 | 1008.4 |
| 20260506020913 | 49 | 317 | 0.9 | 2.6 | 0.00 | 0.00 | 0.00 | 53 | 1008.2 |
| 20260506020432 | 49 | 317 | 0.9 | 2.6 | 0.00 | 0.00 | 0.00 | 53 | 1008.1 |
| 20260506015950 | 50 | 317 | 0.9 | 1.7 | 0.00 | 0.00 | 0.00 | 54 | 1008.0 |
| 20260506015724 | 50 | 317 | 0.9 | 1.7 | 0.00 | 0.00 | 0.00 | 52 | 1008.0 |
| 20260506014556 | 50 | 317 | 0.9 | 2.6 | 0.00 | 0.00 | 0.00 | 52 | 1007.8 |
| 20260506013903 | 50 | 317 | 1.7 | 2.6 | 0.00 | 0.00 | 0.00 | 52 | 1007.8 |
| 20260506013236 | 49 | 304 | 0.9 | 1.7 | 0.00 | 0.00 | 0.00 | 78 | 1001.0 |
| 20260506013134 | 50 | 317 | 1.7 | 2.6 | 0.00 | 0.00 | 0.00 | 52 | 1007.7 |
| 20260506012627 | 48 | 309 | 0.9 | 1.7 | 0.00 | 0.00 | 0.00 | 81 | 1001.2 |
| 20260506012345 | 51 | 317 | 1.7 | 4.3 | 0.00 | 0.00 | 0.00 | 51 | 1007.3 |
| 20260506011850 | 51 | 317 | 0.9 | 3.5 | 0.00 | 0.00 | 0.00 | 51 | 1007.2 |
| 20260506010714 | 51 | 317 | 0.9 | 1.7 | 0.00 | 0.00 | 0.00 | 50 | 1007.1 |
| 20260506005720 | 52 | 317 | 0.9 | 2.6 | 0.00 | 0.00 | 0.00 | 49 | 1007.2 |
| 20260506004759 | 53 | 317 | 0.9 | 1.7 | 0.00 | 0.00 | 0.00 | 50 | 1007.0 |
| 20260506004310 | 53 | 317 | 0.9 | 1.7 | 0.00 | 0.00 | 0.00 | 49 | 1006.9 |
| 20260506004040 | 53 | 317 | 0.9 | 2.6 | 0.00 | 0.00 | 0.00 | 48 | 1006.8 |
| 20260506002915 | 53 | 317 | 1.7 | 2.6 | 0.00 | 0.00 | 0.00 | 47 | 1006.8 |
| 20260506002650 | 53 | 317 | 1.7 | 3.5 | 0.00 | 0.00 | 0.00 | 46 | 1006.8 |
| 20260506000558 | 54 | 317 | 0.9 | 2.6 | 0.00 | 0.00 | 0.00 | 47 | 1006.7 |
| 20260505235656 | 54 | 317 | 1.7 | 3.5 | 0.00 | 0.00 | 0.00 | 45 | 1006.6 |
| 20260505235003 | 54 | 317 | 0.9 | 3.5 | 0.00 | 0.00 | 0.00 | 45 | 1006.7 |
| 20260505234309 | 55 | 318 | 0.9 | 2.6 | 0.00 | 0.00 | 0.00 | 46 | 1006.6 |
| 20260505234037 | 55 | 318 | 0.9 | 2.6 | 0.00 | 0.00 | 0.00 | 45 | 1006.7 |
| 20260505233115 | 55 | 318 | 1.7 | 3.5 | 0.00 | 0.00 | 0.00 | 46 | 1006.6 |
| 20260505232157 | 55 | 318 | 2.6 | 8.7 | 0.00 | 0.00 | 0.00 | 42 | 1006.7 |
| 20260505231707 | 55 | 316 | 2.6 | 8.7 | 0.00 | 0.00 | 0.00 | 40 | 1006.7 |
| 20260505231213 | 55 | 317 | 1.7 | 5.2 | 0.00 | 0.00 | 0.00 | 42 | 1006.7 |
| 20260505231001 | 55 | 313 | 1.7 | 3.5 | 0.00 | 0.00 | 0.00 | 44 | 1006.8 |
| 20260505225129 | 56 | 315 | 2.6 | 5.2 | 0.00 | 0.00 | 0.00 | 44 | 1006.8 |
| 20260505222140 | 56 | 311 | 3.5 | 7.8 | 0.00 | 0.00 | 0.00 | 41 | 1006.7 |
| 20260505221901 | 56 | 318 | 2.6 | 7.8 | 0.00 | 0.00 | 0.00 | 42 | 1006.7 |
| 20260505221410 | 56 | 320 | 3.5 | 7.8 | 0.00 | 0.00 | 0.00 | 40 | 1006.7 |
| 20260505220712 | 57 | 315 | 3.5 | 7.8 | 0.00 | 0.00 | 0.00 | 42 | 1006.7 |
| 20260505220218 | 57 | 316 | 4.3 | 8.7 | 0.00 | 0.00 | 0.00 | 40 | 1006.6 |
| 20260505215838 | 49 | 309 | 0.9 | 0.9 | 0.00 | 0.00 | 0.00 | 80 | 1001.5 |
| 20260505215629 | 57 | 309 | 4.3 | 8.7 | 0.00 | 0.00 | 0.00 | 39 | 1006.5 |
| 20260505215114 | 58 | 329 | 3.5 | 7.0 | 0.00 | 0.00 | 0.00 | 40 | 1006.6 |
| 20260505215035 | 50 | 309 | 0.0 | 1.7 | 0.00 | 0.00 | 0.00 | 78 | 1002.3 |
| 20260505214803 | 58 | 315 | 3.5 | 7.8 | 0.00 | 0.00 | 0.00 | 42 | 1006.6 |
| 20260505214319 | 58 | 313 | 3.5 | 8.7 | 0.00 | 0.00 | 0.00 | 40 | 1006.4 |
| 20260505213836 | 58 | 325 | 4.3 | 8.7 | 0.00 | 0.00 | 0.00 | 36 | 1006.6 |
| 20260505212859 | 58 | 321 | 2.6 | 11.3 | 0.00 | 0.00 | 0.00 | 43 | 1006.5 |
| 20260505212635 | 58 | 320 | 3.5 | 11.3 | 0.00 | 0.00 | 0.00 | 42 | 1006.4 |
| 20260505212205 | 58 | 306 | 3.5 | 9.6 | 0.00 | 0.00 | 0.00 | 41 | 1006.5 |
| 20260505211720 | 57 | 314 | 3.5 | 8.7 | 0.00 | 0.00 | 0.00 | 42 | 1006.5 |
| 20260505210808 | 57 | 314 | 3.5 | 8.7 | 0.00 | 0.00 | 0.00 | 44 | 1006.5 |
| 20260505210532 | 57 | 323 | 4.3 | 8.7 | 0.00 | 0.00 | 0.00 | 39 | 1006.6 |
| 20260505210037 | 57 | 323 | 4.3 | 9.6 | 0.00 | 0.00 | 0.00 | 42 | 1006.5 |
| 20260505205328 | 57 | 309 | 3.5 | 10.4 | 0.00 | 0.00 | 0.00 | 44 | 1006.6 |
| 20260505204644 | 56 | 321 | 4.3 | 9.6 | 0.00 | 0.00 | 0.00 | 43 | 1006.7 |
| 20260505204204 | 57 | 314 | 5.2 | 12.2 | 0.00 | 0.00 | 0.00 | 40 | 1006.9 |
| 20260505203308 | 57 | 308 | 5.2 | 12.2 | 0.00 | 0.00 | 0.00 | 39 | 1006.9 |
| 20260505201642 | 51 | 309 | 0.0 | 0.9 | 0.00 | 0.00 | 0.00 | 75 | 1002.5 |
| 20260505201602 | 57 | 317 | 5.2 | 11.3 | 0.00 | 0.00 | 0.00 | 42 | 1006.9 |
| 20260505201120 | 57 | 281 | 5.2 | 11.3 | 0.00 | 0.00 | 0.00 | 42 | 1007.0 |
| 20260505200840 | 57 | 322 | 5.2 | 12.2 | 0.00 | 0.00 | 0.00 | 43 | 1007.1 |
| 20260505200611 | 57 | 316 | 4.3 | 12.2 | 0.00 | 0.00 | 0.00 | 44 | 1007.1 |
| 20260505200342 | 57 | 311 | 5.2 | 12.2 | 0.00 | 0.00 | 0.00 | 42 | 1007.1 |
| 20260505195850 | 57 | 321 | 5.2 | 12.2 | 0.00 | 0.00 | 0.00 | 39 | 1007.3 |
| 20260505195626 | 57 | 285 | 4.3 | 9.6 | 0.00 | 0.00 | 0.00 | 39 | 1007.2 |
| 20260505194944 | 57 | 320 | 5.2 | 10.4 | 0.00 | 0.00 | 0.00 | 43 | 1007.2 |
| 20260505194036 | 56 | 306 | 4.3 | 10.4 | 0.00 | 0.00 | 0.00 | 44 | 1007.3 |
| 20260505193332 | 56 | 316 | 4.3 | 9.6 | 0.00 | 0.00 | 0.00 | 42 | 1007.3 |
| 20260505192652 | 56 | 314 | 3.5 | 8.7 | 0.00 | 0.00 | 0.00 | 43 | 1007.4 |
| 20260505191748 | 56 | 302 | 3.5 | 8.7 | 0.00 | 0.00 | 0.00 | 43 | 1007.3 |
| 20260505190627 | 56 | 317 | 4.3 | 10.4 | 0.00 | 0.00 | 0.00 | 39 | 1007.3 |
| 20260505190353 | 56 | 321 | 5.2 | 10.4 | 0.00 | 0.00 | 0.00 | 41 | 1007.3 |
| 20260505190107 | 57 | 312 | 5.2 | 11.3 | 0.00 | 0.00 | 0.00 | 38 | 1007.2 |
| 20260505184943 | 56 | 314 | 4.3 | 11.3 | 0.00 | 0.00 | 0.00 | 41 | 1007.1 |
| 20260505184246 | 56 | 322 | 4.3 | 11.3 | 0.00 | 0.00 | 0.00 | 40 | 1007.1 |
| 20260505183704 | 56 | 316 | 4.3 | 10.4 | 0.00 | 0.00 | 0.00 | 44 | 1007.0 |
| 20260505181941 | 56 | 313 | 4.3 | 12.2 | 0.00 | 0.00 | 0.00 | 39 | 1007.0 |
| 20260505181458 | 55 | 286 | 4.3 | 8.7 | 0.00 | 0.00 | 0.00 | 42 | 1006.9 |
| 20260505181230 | 55 | 285 | 5.2 | 10.4 | 0.00 | 0.00 | 0.00 | 39 | 1006.8 |
| 20260505180958 | 55 | 335 | 4.3 | 10.4 | 0.00 | 0.00 | 0.00 | 40 | 1006.8 |
| 20260505180042 | 55 | 317 | 4.3 | 9.6 | 0.00 | 0.00 | 0.00 | 44 | 1006.8 |
| 20260505175352 | 54 | 309 | 4.3 | 9.6 | 0.00 | 0.00 | 0.00 | 46 | 1006.8 |
| 20260505173908 | 52 | 309 | 0.0 | 1.7 | 0.00 | 0.00 | 0.00 | 75 | 1002.6 |
| 20260505173718 | 54 | 310 | 5.2 | 9.6 | 0.00 | 0.00 | 0.00 | 44 | 1007.0 |
| 20260505173450 | 54 | 302 | 4.3 | 11.3 | 0.00 | 0.00 | 0.00 | 41 | 1007.0 |
| 20260505172805 | 55 | 332 | 3.5 | 11.3 | 0.00 | 0.00 | 0.00 | 42 | 1006.9 |
| 20260505172325 | 55 | 320 | 3.5 | 7.8 | 0.00 | 0.00 | 0.00 | 45 | 1006.9 |
| 20260505171837 | 54 | 322 | 4.3 | 9.6 | 0.00 | 0.00 | 0.00 | 45 | 1007.0 |
| 20260505171613 | 55 | 311 | 4.3 | 9.6 | 0.00 | 0.00 | 0.00 | 42 | 1007.0 |
| 20260505170157 | 55 | 314 | 5.2 | 10.4 | 0.00 | 0.00 | 0.00 | 42 | 1006.6 |
| 20260505165810 | 55 | 327 | 4.3 | 8.7 | 0.00 | 0.00 | 0.00 | 42 | 1006.7 |
| 20260505165100 | 55 | 325 | 3.5 | 9.6 | 0.00 | 0.00 | 0.00 | 47 | 1006.5 |
| 20260505164137 | 55 | 322 | 4.3 | 9.6 | 0.00 | 0.00 | 0.00 | 45 | 1006.3 |
| 20260505163739 | 52 | 309 | 0.0 | 1.7 | 0.00 | 0.00 | 0.00 | 75 | 1002.7 |
| 20260505163622 | 55 | 315 | 4.3 | 9.6 | 0.00 | 0.00 | 0.00 | 44 | 1006.3 |
| 20260505163222 | 53 | 309 | 0.9 | 2.6 | 0.00 | 0.00 | 0.00 | 75 | 1002.9 |
| 20260505163041 | 55 | 315 | 5.2 | 10.4 | 0.00 | 0.00 | 0.00 | 45 | 1006.4 |
| 20260505162549 | 55 | 285 | 4.3 | 10.4 | 0.00 | 0.00 | 0.00 | 43 | 1006.5 |
| 20260505161838 | 55 | 312 | 4.3 | 8.7 | 0.00 | 0.00 | 0.00 | 46 | 1006.6 |
| 20260505161131 | 55 | 317 | 4.3 | 7.8 | 0.00 | 0.00 | 0.00 | 46 | 1006.7 |
| 20260505160631 | 55 | 310 | 4.3 | 8.7 | 0.00 | 0.00 | 0.00 | 46 | 1006.6 |
| 20260505160141 | 55 | 316 | 4.3 | 8.7 | 0.00 | 0.00 | 0.00 | 47 | 1006.7 |
| 20260505153327 | 53 | 315 | 4.3 | 12.2 | 0.00 | 0.00 | 0.00 | 44 | 1006.6 |
| 20260505152216 | 54 | 313 | 4.3 | 9.6 | 0.00 | 0.00 | 0.00 | 42 | 1006.7 |
| 20260505151748 | 54 | 317 | 4.3 | 8.7 | 0.00 | 0.00 | 0.00 | 46 | 1006.7 |
| 20260505151100 | 54 | 308 | 3.5 | 7.0 | 0.00 | 0.00 | 0.00 | 45 | 1006.8 |
| 20260505140223 | 51 | 317 | 3.5 | 8.7 | 0.00 | 0.00 | 0.00 | 55 | 1006.8 |
| 20260505124651 | 46 | 302 | 0.9 | 2.6 | 0.00 | 0.00 | 0.00 | 61 | 1006.4 |
| 20260505124016 | 46 | 302 | 0.9 | 2.6 | 0.00 | 0.00 | 0.00 | 60 | 1006.8 |
| 20260505123320 | 46 | 302 | 0.9 | 3.5 | 0.00 | 0.00 | 0.00 | 62 | 1007.1 |
| 20260505122405 | 46 | 311 | 1.7 | 4.3 | 0.00 | 0.00 | 0.00 | 63 | 1007.2 |
| 20260505122137 | 46 | 307 | 1.7 | 3.5 | 0.00 | 0.00 | 0.00 | 63 | 1006.5 |
| 20260505120959 | 46 | 307 | 1.7 | 3.5 | 0.00 | 0.00 | 0.00 | 63 | 1006.5 |
| 20260505120646 | 45 | 312 | 0.9 | 3.5 | 0.00 | 0.00 | 0.00 | 62 | 1006.6 |
| 20260505120152 | 45 | 321 | 1.7 | 3.5 | 0.00 | 0.00 | 0.00 | 62 | 1005.9 |
| 20260505115855 | 45 | 321 | 1.7 | 3.5 | 0.00 | 0.00 | 0.00 | 60 | 1006.3 |
| 20260505113217 | 45 | 321 | 0.9 | 1.7 | 0.00 | 0.00 | 0.00 | 61 | 1004.9 |
| 20260505112524 | 45 | 321 | 0.9 | 2.6 | 0.00 | 0.00 | 0.00 | 60 | 1004.8 |
| 20260505112101 | 56 | 309 | 0.0 | 1.7 | 0.00 | 0.00 | 0.00 | 67 | 1003.4 |
| 20260505112004 | 45 | 321 | 0.9 | 2.6 | 0.00 | 0.00 | 0.00 | 61 | 1004.9 |
| 20260505101836 | 46 | 327 | 0.9 | 1.7 | 0.00 | 0.00 | 0.00 | 62 | 1004.8 |
| 20260505100034 | 46 | 327 | 0.0 | 0.9 | 0.00 | 0.00 | 0.00 | 59 | 1004.6 |
| 20260505094757 | 58 | 309 | 0.0 | 0.0 | 0.00 | 0.00 | 0.00 | 62 | 1003.5 |
| 20260505094712 | 58 | 309 | 0.0 | 0.9 | 0.00 | 0.00 | 0.00 | 61 | 1003.5 |
| 20260505094658 | 59 | 309 | 0.0 | 0.9 | 0.00 | 0.00 | 0.00 | 61 | 1003.5 |
| 20260505094544 | 61 | 309 | 0.0 | 0.9 | 0.00 | 0.00 | 0.00 | 56 | 1003.3 |
| 20260505094440 | 46 | 327 | 0.9 | 2.6 | 0.00 | 0.00 | 0.00 | 60 | 1004.2 |
| 20260505094343 | 64 | 309 | 0.0 | 1.7 | 0.00 | 0.00 | 0.00 | 53 | 1003.1 |
| 20260505094337 | 65 | 309 | 1.7 | 3.5 | 0.00 | 0.00 | 0.00 | 51 | 1003.0 |
| 20260505094308 | 66 | 324 | 1.7 | 5.2 | 0.00 | 0.00 | 0.00 | 50 | 1002.9 |
| 20260505094302 | 66 | 34 | 0.9 | 3.5 | 0.00 | 0.00 | 0.00 | 50 | 1003.0 |
| 20260505094257 | 67 | 323 | 1.7 | 7.0 | 0.00 | 0.00 | 0.00 | 51 | 1002.9 |
| 20260505093625 | 46 | 327 | 1.7 | 3.5 | 0.00 | 0.00 | 0.00 | 59 | 1004.3 |
| 20260505092649 | 46 | 346 | 0.9 | 3.5 | 0.00 | 0.00 | 0.00 | 60 | 1005.1 |
| 20260505092013 | 46 | 317 | 0.9 | 3.5 | 0.00 | 0.00 | 0.00 | 59 | 1004.8 |
| 20260505091740 | 47 | 323 | 0.9 | 2.6 | 0.00 | 0.00 | 0.00 | 60 | 1004.8 |
| 20260505091033 | 47 | 323 | 0.9 | 2.6 | 0.00 | 0.00 | 0.00 | 60 | 1004.4 |
| 20260505090143 | 47 | 325 | 0.9 | 1.7 | 0.00 | 0.00 | 0.00 | 60 | 1004.0 |
| 20260505085858 | 48 | 325 | 0.9 | 2.6 | 0.00 | 0.00 | 0.00 | 60 | 1004.1 |
| 20260505085006 | 48 | 325 | 1.7 | 5.2 | 0.00 | 0.00 | 0.00 | 59 | 1003.6 |
| 20260505084315 | 49 | 315 | 1.7 | 6.1 | 0.00 | 0.00 | 0.00 | 58 | 1003.3 |
| 20260505084053 | 49 | 318 | 1.7 | 5.2 | 0.00 | 0.00 | 0.00 | 58 | 1003.3 |
| 20260505083623 | 49 | 327 | 1.7 | 7.0 | 0.00 | 0.00 | 0.00 | 58 | 1003.2 |
| 20260505083154 | 49 | 327 | 2.6 | 7.0 | 0.00 | 0.00 | 0.00 | 56 | 1003.1 |
| 20260505082936 | 49 | 327 | 2.6 | 7.8 | 0.00 | 0.00 | 0.00 | 56 | 1002.8 |
| 20260505082504 | 50 | 329 | 2.6 | 7.8 | 0.00 | 0.00 | 0.00 | 56 | 1003.0 |
| 20260505082243 | 50 | 303 | 1.7 | 4.3 | 0.00 | 0.00 | 0.00 | 58 | 1003.0 |
| 20260505081347 | 50 | 333 | 1.7 | 3.5 | 0.00 | 0.00 | 0.00 | 58 | 1002.6 |
| 20260505080916 | 51 | 319 | 0.9 | 1.7 | 0.00 | 0.00 | 0.00 | 58 | 1002.5 |
| 20260505074934 | 51 | 323 | 0.9 | 3.5 | 0.00 | 0.00 | 0.00 | 58 | 1002.0 |
| 20260505074459 | 51 | 323 | 1.7 | 4.3 | 0.00 | 0.00 | 0.00 | 58 | 1002.3 |
| 20260505073815 | 51 | 323 | 1.7 | 5.2 | 0.00 | 0.00 | 0.00 | 58 | 1002.2 |
| 20260505073551 | 52 | 321 | 1.7 | 5.2 | 0.00 | 0.00 | 0.00 | 58 | 1002.3 |
| 20260505073128 | 52 | 324 | 1.7 | 3.5 | 0.00 | 0.00 | 0.00 | 58 | 1002.0 |
| 20260505072450 | 52 | 323 | 1.7 | 5.2 | 0.00 | 0.00 | 0.00 | 57 | 1001.8 |
| 20260505070439 | 54 | 326 | 1.7 | 5.2 | 0.00 | 0.00 | 0.00 | 56 | 1001.8 |
| 20260505070205 | 54 | 327 | 2.6 | 5.2 | 0.00 | 0.00 | 0.00 | 55 | 1001.2 |
| 20260505065055 | 54 | 332 | 2.6 | 5.2 | 0.00 | 0.00 | 0.00 | 55 | 1001.2 |
| 20260505064638 | 55 | 329 | 2.6 | 5.2 | 0.00 | 0.00 | 0.00 | 53 | 1001.2 |
| 20260505064213 | 55 | 318 | 2.6 | 6.1 | 0.00 | 0.00 | 0.00 | 53 | 1001.1 |
| 20260505063746 | 56 | 131 | 2.6 | 6.1 | 0.00 | 0.00 | 0.00 | 53 | 1000.8 |
| 20260505063325 | 56 | 331 | 2.6 | 7.0 | 0.00 | 0.00 | 0.00 | 52 | 1000.8 |
| 20260505062854 | 56 | 322 | 2.6 | 7.0 | 0.00 | 0.00 | 0.00 | 51 | 1000.9 |
| 20260505062641 | 56 | 323 | 2.6 | 4.3 | 0.00 | 0.00 | 0.00 | 51 | 1000.7 |
| 20260505061754 | 57 | 321 | 2.6 | 5.2 | 0.00 | 0.00 | 0.00 | 50 | 1000.4 |
| 20260505053613 | 59 | 323 | 3.5 | 7.8 | 0.00 | 0.00 | 0.00 | 48 | 1000.4 |
| 20260505052937 | 59 | 316 | 3.5 | 7.8 | 0.00 | 0.00 | 0.00 | 47 | 1000.3 |
| 20260505052502 | 59 | 321 | 2.6 | 7.8 | 0.00 | 0.00 | 0.00 | 47 | 1000.1 |
| 20260505052025 | 59 | 313 | 2.6 | 7.0 | 0.00 | 0.00 | 0.00 | 46 | 1000.2 |
| 20260505041316 | 61 | 307 | 2.6 | 6.1 | 0.00 | 0.00 | 0.00 | 46 | 999.3 |
| 20260505041056 | 61 | 300 | 2.6 | 6.1 | 0.00 | 0.00 | 0.00 | 46 | 999.1 |
| 20260505040412 | 61 | 319 | 2.6 | 7.0 | 0.00 | 0.00 | 0.00 | 45 | 999.1 |
| 20260505035941 | 61 | 320 | 3.5 | 7.8 | 0.00 | 0.00 | 0.00 | 45 | 998.9 |
| 20260505035259 | 62 | 318 | 3.5 | 7.8 | 0.00 | 0.00 | 0.00 | 45 | 998.8 |
| 20260505034543 | 62 | 313 | 3.5 | 7.8 | 0.00 | 0.00 | 0.00 | 45 | 998.9 |
| 20260505033859 | 62 | 314 | 3.5 | 7.8 | 0.00 | 0.00 | 0.00 | 45 | 998.7 |
| 20260505032555 | 47 | 5 | 1.7 | 4.3 | 0.00 | 0.00 | 0.00 | 64 | 1010.3 |
| 20260505032432 | 62 | 317 | 3.5 | 7.8 | 0.00 | 0.00 | 0.00 | 46 | 998.9 |
| 20260505032137 | 63 | 317 | 3.5 | 7.8 | 0.00 | 0.00 | 0.00 | 46 | 998.9 |
| 20260505031038 | 47 | 232 | 1.7 | 8.7 | 0.00 | 0.00 | 0.00 | 64 | 1010.1 |
| 20260505030938 | 63 | 298 | 1.7 | 5.2 | 0.00 | 0.00 | 0.00 | 47 | 999.0 |
| 20260505030403 | 64 | 308 | 1.7 | 5.2 | 0.00 | 0.00 | 0.00 | 48 | 999.0 |
| 20260505030100 | 64 | 307 | 2.6 | 5.2 | 0.00 | 0.00 | 0.00 | 46 | 999.0 |